Location: *
(23.5860°S, 65.4036°W)
Time: 19:42:06
(UTC+00:00)

Cosmos 1733 Rocket - Pass Details

Date: 25 August 2019
Orbit: 604 x 627 km, 82.5° (Epoch: 18 October)

Event Time Altitude Azimuth Distance (km) Brightness Sun altitude
Rises 23:46:02 0° 192° (SSW) 2,903 6.6 -23.0°
Reaches altitude 10° 23:48:19 10° 196° (SSW) 1,987 5.8 -23.5°
Maximum altitude 23:52:36 54° 273° (W) 750 3.7 -24.5°
Drops below altitude 10° 23:56:49 10° 350° (N) 1,951 5.7 -25.4°
Sets 23:59:02 0° 354° (N) 2,844 6.5 -26.0°
